Sexton Summit, OR

12:52 PM PDT on May 29, 2017 (GMT -0700)
Sexton Summit

Weather History for KSXT - April, 2014

Change the Weather History Date:

Thursday, April 3, 2014

  Actual Average Record
Temperature  
Mean Temperature 40 °F -  
Max Temperature 48 °F 44 °F 66 °F (2002)
Min Temperature 34 °F 31 °F 24 °F (1999)
Degree Days  
Heating Degree Days 25    
Moisture  
Dew Point 27 °F    
Average Humidity 64    
Maximum Humidity 82    
Minimum Humidity 47    
Precipitation  
Precipitation 0.00 in - - ()
Sea Level Pressure  
Sea Level Pressure 29.99 in    
Wind  
Wind Speed 10 mph (South)    
Max Wind Speed 15 mph    
Max Gust Speed -    
Visibility 10 miles    
Events      
Averages and records for this station are not official NWS values.
T = Trace of Precipitation, MM = Missing Value Source: NWS Daily Summary

Daily Weather History Graph

Daily Weather History Graph

Search for Another Location

Airport or City:

Trip Planner

Search our weather history database for the weather conditions in past years. The results will help you decide how hot, cold, wet, or windy it might be!

Date:

Astronomy

Apr. 03, 2014 Rise Set
Actual Time 6:52 AM PDT 7:41 PM PDT
Civil Twilight 6:23 AM PDT 8:10 PM PDT
Nautical Twilight 5:49 AM PDT 8:44 PM PDT
Astronomical Twilight 5:14 AM PDT 9:20 PM PDT
Moon 9:21 AM PDT (4/3) No Moon Set
Length of Visible Light 13h 46m
Length of Day
12h 49m
Waxing Crescent, 18% of the Moon is Illuminated
Apr 3
Waxing Crescent
Apr 7
First Quarter
Apr 15
Full
Apr 22
Last Quarter
Apr 28
New

Hourly Weather History & Observations

Time (PDT) Temp. Windchill Dew Point Humidity Pressure Visibility Wind Dir Wind Speed Gust Speed Precip Events Conditions
12:56 AM 37.0 °F 31.6 °F 30.9 °F 79% 30.01 in 10.0 mi SSW 6.9 mph - N/A   Clear
1:56 AM 36.0 °F 27.5 °F 30.9 °F 82% 30.00 in 10.0 mi South 12.7 mph - N/A   Clear
2:56 AM 34.0 °F 24.6 °F 28.0 °F 79% 29.99 in 10.0 mi South 13.8 mph - N/A   Clear
3:56 AM 34.0 °F 24.2 °F 26.1 °F 73% 29.99 in 10.0 mi SSW 15.0 mph - N/A   Clear
4:56 AM 34.0 °F 25.0 °F 25.0 °F 70% 29.97 in 10.0 mi SSW 12.7 mph - N/A   Clear
5:56 AM 35.1 °F 26.4 °F 24.1 °F 64% 29.98 in 10.0 mi South 12.7 mph - N/A   Clear
6:56 AM 34.0 °F 25.0 °F 25.0 °F 70% 29.99 in 10.0 mi South 12.7 mph - N/A   Scattered Clouds
7:56 AM 35.1 °F 27.4 °F 25.0 °F 67% 29.99 in 10.0 mi SSE 10.4 mph - N/A   Overcast
8:56 AM 36.0 °F 28.5 °F 25.0 °F 64% 29.99 in 10.0 mi South 10.4 mph - N/A   Mostly Cloudy
9:56 AM 39.0 °F 32.8 °F 26.1 °F 60% 29.99 in 10.0 mi South 9.2 mph - N/A   Overcast
10:56 AM 42.1 °F 37.7 °F 28.0 °F 58% 30.00 in 10.0 mi SSE 6.9 mph - N/A   Overcast
11:56 AM 43.0 °F 37.7 °F 26.1 °F 51% 29.99 in 10.0 mi South 9.2 mph - N/A   Overcast
12:56 PM 46.0 °F 41.9 °F 27.0 °F 47% 29.98 in 10.0 mi South 8.1 mph - N/A   Overcast
1:56 PM 46.9 °F - 28.9 °F 50% 29.97 in 10.0 mi South 5.8 mph - N/A   Partly Cloudy
2:56 PM 46.9 °F - 28.0 °F 48% 29.97 in 10.0 mi South 5.8 mph - N/A   Scattered Clouds
3:56 PM 46.9 °F - 30.0 °F 52% 29.96 in 10.0 mi Variable 3.5 mph - N/A   Overcast
4:56 PM 44.1 °F 41.5 °F 27.0 °F 51% 29.97 in 10.0 mi Variable 4.6 mph - N/A   Overcast
5:56 PM 42.1 °F 39.2 °F 27.0 °F 55% 29.97 in 10.0 mi Variable 4.6 mph - N/A   Overcast
6:56 PM 39.9 °F 35.1 °F 28.0 °F 63% 29.99 in 10.0 mi Variable 6.9 mph - N/A   Overcast
8:56 PM 37.0 °F 31.0 °F 30.0 °F 76% 30.00 in 10.0 mi SSW 8.1 mph - N/A   Overcast
9:56 PM 36.0 °F 29.0 °F 28.0 °F 73% 29.99 in 10.0 mi South 9.2 mph - N/A   Overcast
10:56 PM 36.0 °F 29.6 °F 27.0 °F 70% 29.99 in 10.0 mi SSW 8.1 mph - N/A   Overcast
11:56 PM 36.0 °F 29.6 °F 27.0 °F 70% 29.99 in 10.0 mi South 8.1 mph - N/A   Overcast